Content
SEND FEEDBACK

Daily
Averages
Monthly
Summary
United States of America

CULBERTSON, NEBRASKA


Home > North America > United States > Nebraska
Elevation: 2590 feet     Latitude: 40 13N     Longitude: 100 50W

WEATHER
 
SELECT A DAY
Number of Records: 188,448;   Date Range: 1/1/95 - 12/25/14
 
SHARE

PRINT THIS DATA

[ ← Previous Day ]
WEATHER ALMANAC - JANUARY 23, 2013
[ Next Day → ]
[ °C ]   °F
Weather ElementAverageHighLow
Temperature28.1 °F41 °F (2:53 pm)19 °F (11:53 pm)
Dewpoint18.8 °F24.1 °F (1:53 pm)12 °F (11:53 pm)
Humidity69.2 %85 % (1:53 am)49 % (2:53 pm)
Barometer30.28 in30.45 in (11:53 pm)30.19 in (4:53 am)
Wind Speed8.1 mph15 mph (9:53 pm)
Weather ElementAverage
Visibility10 mi
Wind DirectionESE (128.7 °)

Weather ElementTotal
Precipitation---
Heating Degree Days35 (Base 65)
Averaged from 23 records on January 23, 2013
WEATHER CONDITIONS BREAKOUT
WIND DIRECTION BREAKOUT
WEATHER BY HOUR - JANUARY 23, 2013
[ °C ]   °F
Local TimeTemperatureDewpointHumidityBarometerVisibilityWind DirectionWind SpeedGust SpeedPrecipitationEventsConditions
1:53 AM21.9 °F18.0 °F85 %30.20 in9.0 miCalmClear
2:53 AM25.0 °F18.0 °F75 %30.21 in10.0 miWest (270°)10.4 mphClear
3:53 AM21.9 °F17.1 °F82 %30.20 in10.0 miWest (260°)4.6 mphClear
4:53 AM19.9 °F16.0 °F85 %30.19 in10.0 miWest (260°)6.9 mphClear
5:53 AM21.0 °F15.1 °F78 %30.19 in10.0 miWSW (250°)4.6 mphClear
6:53 AM21.0 °F16.0 °F81 %30.20 in10.0 miWest (260°)4.6 mphClear
7:53 AM21.0 °F16.0 °F81 %30.21 in10.0 miWNW (290°)8.1 mphClear
8:53 AM23.0 °F18.0 °F81 %30.23 in10.0 miWest (260°)6.9 mphClear
9:53 AM25.0 °F19.9 °F81 %30.25 in10.0 miWSW (240°)6.9 mphClear
10:53 AM30.0 °F21.9 °F72 %30.28 in10.0 miCalmClear
11:53 AM36.0 °F21.0 °F55 %30.28 in10.0 miEast (80°)8.1 mphClear
12:53 PM39.0 °F23.0 °F53 %30.26 in10.0 miEast (80°)6.9 mphClear
1:53 PM39.0 °F24.1 °F55 %30.23 in10.0 miVariable4.6 mphClear
2:53 PM41.0 °F23.0 °F49 %30.24 in10.0 miENE (70°)9.2 mphClear
3:53 PM39.9 °F24.1 °F53 %30.27 in10.0 miENE (70°)11.5 mphClear
4:53 PM37.9 °F23.0 °F55 %30.30 in10.0 miENE (70°)10.4 mphClear
5:53 PM33.1 °F21.9 °F64 %30.33 in10.0 miENE (60°)11.5 mphClear
6:53 PM30.9 °F21.0 °F67 %30.35 in10.0 miENE (70°)11.5 mphClear
7:53 PM28.9 °F19.0 °F67 %30.39 in10.0 miENE (70°)10.4 mphClear
8:53 PM27.0 °F17.1 °F66 %30.41 in10.0 miEast (80°)13.8 mphClear
9:53 PM24.1 °F14.0 °F65 %30.43 in10.0 miEast (80°)15.0 mphClear
10:53 PM21.2 °F12.2 °F68 %30.35 in10.0 miENE (70°)12.7 mphClear
11:53 PM19.0 °F12.0 °F74 %30.45 in10.0 miENE (70°)8.1 mphClear
Hourly data recorded from KMCK, located miles away from Culbertson, Nebraska







STORIES FROM OUR PARTNERS